Weather History for Bellingham, WA

Change the Weather History Date:

Monday, February 18, 2013

  Actual Average Record
Temperature  
Mean Temperature 44 °F 41 °F  
Max Temperature 50 °F 49 °F 65 °F (1958)
Min Temperature 39 °F 33 °F 12 °F (1986)
Degree Days  
Heating Degree Days 20 24  
Month to date heating degree days 443  
Cooling Degree Days 0 0  
Month to date cooling degree days 0  
Year to date cooling degree days 0  
Moisture  
Dew Point 35 °F    
Average Humidity 71    
Maximum Humidity 83    
Minimum Humidity 50    
Precipitation  
Precipitation 0.00 in 0.11 in 1.21 in (1995)
Month to date precipitation 1.99  
Year to date precipitation 6.66  
Sea Level Pressure  
Sea Level Pressure 29.94 in    
Wind  
Wind Speed 1 mph (NE)    
Max Wind Speed 7 mph    
Max Gust Speed -    
Visibility 10 miles    
Events      
T = Trace of Precipitation, MM = Missing Value Source: NWS Daily Summary

Daily Weather History Graph

Daily Weather History Graph

Search for Another Location

Airport:

Trip Planner

Search our weather history database for the weather conditions in past years. The results will help you decide how hot, cold, wet, or windy it might be!

Date:

Astronomy

Feb. 18, 2013 Rise Set
Actual Time 7:12 AM PST 5:36 PM PST
Civil Twilight 6:39 AM PST 6:08 PM PST
Nautical Twilight 6:03 AM PST 6:45 PM PST
Astronomical Twilight 5:26 AM PST 7:22 PM PST
Moon 11:11 AM PST (2/18) 2:11 AM PST (2/18)
Length of Visible Light 11h 29m
Length of Day
10h 24m
First Quarter, 59% of the Moon is Illuminated
Feb 18
First Quarter
Feb 25
Full
Mar 4
Last Quarter
Mar 11
New
Mar 19
First Quarter

Hourly Weather History & Observations

Time (PST) Temp. Windchill Dew Point Humidity Pressure Visibility Wind Dir Wind Speed Gust Speed Precip Events Conditions
12:53 AM 43.0 °F - 36.0 °F 76% 30.12 in 10.0 mi Calm Calm - N/A   Overcast
1:53 AM 43.0 °F - 36.0 °F 76% 30.10 in 10.0 mi Calm Calm - N/A   Overcast
2:53 AM 43.0 °F - 36.0 °F 76% 30.08 in 10.0 mi Calm Calm - N/A   Overcast
3:53 AM 42.8 °F - 35.6 °F 76% 30.04 in 10.0 mi Calm Calm - N/A   Overcast
4:53 AM 41.0 °F - 36.0 °F 82% 30.04 in 10.0 mi Calm Calm - N/A   Overcast
5:53 AM 41.0 °F - 35.1 °F 79% 30.02 in 10.0 mi Calm Calm - N/A   Overcast
6:53 AM 39.9 °F - 35.1 °F 83% 30.02 in 10.0 mi Calm Calm - N/A   Overcast
7:53 AM 41.0 °F - 35.1 °F 79% 30.01 in 10.0 mi Calm Calm - N/A   Overcast
8:53 AM 43.0 °F - 37.0 °F 80% 30.00 in 10.0 mi Calm Calm - 0.00 in   Overcast
9:53 AM 44.1 °F - 37.9 °F 79% 29.99 in 10.0 mi Calm Calm - N/A   Overcast
10:53 AM 46.0 °F - 37.9 °F 73% 29.98 in 10.0 mi Calm Calm - N/A   Overcast
11:53 AM 46.9 °F - 36.0 °F 66% 29.96 in 10.0 mi ESE 3.5 mph - N/A   Overcast
12:53 PM 46.9 °F - 34.0 °F 61% 29.93 in 10.0 mi Calm Calm - N/A   Mostly Cloudy
1:53 PM 48.9 °F - 33.1 °F 54% 29.91 in 10.0 mi Variable 5.8 mph - N/A   Mostly Cloudy
2:53 PM 50.0 °F - 32.0 °F 50% 29.89 in 10.0 mi SSE 5.8 mph - N/A   Overcast
3:53 PM 50.0 °F - 33.1 °F 52% 29.88 in 10.0 mi Calm Calm - N/A   Overcast
4:53 PM 48.9 °F - 34.0 °F 56% 29.86 in 10.0 mi ESE 6.9 mph - 0.00 in   Overcast
5:53 PM 46.0 °F 43.1 °F 36.0 °F 68% 29.85 in 10.0 mi NNE 5.8 mph - N/A   Overcast
6:53 PM 45.0 °F 41.8 °F 36.0 °F 71% 29.83 in 10.0 mi NNE 5.8 mph - N/A   Overcast
7:53 PM 41.0 °F 38.0 °F 34.0 °F 76% 29.82 in 10.0 mi North 4.6 mph - N/A   Mostly Cloudy
8:53 PM 43.0 °F 41.3 °F 35.1 °F 74% 29.81 in 10.0 mi NNE 3.5 mph - N/A   Overcast
9:53 PM 41.0 °F 38.0 °F 34.0 °F 76% 29.80 in 10.0 mi NNE 4.6 mph - N/A   Scattered Clouds
10:53 PM 41.0 °F 39.0 °F 33.1 °F 73% 29.80 in 10.0 mi NE 3.5 mph - N/A   Mostly Cloudy
11:53 PM 42.1 °F 37.7 °F 34.0 °F 73% 29.79 in 10.0 mi NNE 6.9 mph - N/A   Overcast